Regional Weather Roundup
Issued by NWS Kansas City/Pleasant Hill, MO

Home | Current Version | Previous Version | Graphics & Text | Print | Product List | Glossary Off
Versions: 1 2 3 4 5 6 7 8 9 10 11 12 13 14 15 16 17 18 19 20 21 22 23 24 25 26 27 28 29 30 31 32 33 34 35 36 37 38 39 40 41 42 43 44 45 46 47 48 49 50

000
ASUS43 KEAX 251411
RWREAX

WEATHER ROUNDUP FOR EASTERN KANSAS AND NORTHWEST MISSOURI
NATIONAL WEATHER SERVICE KANSAS CITY/PLEASANT HILL MO
900 AM CDT FRI JUL 25 2014

KSZ040-057-103>105-MOZ028-029-037-043-251500-
...KANSAS CITY METROPOLITAN AREA...

CITY           SKY/WX    TMP DP  RH WIND       PRES   REMARKS
K.C. INTL      PTSUNNY   77  70  79 S21       29.87F
K.C. DOWNTOWN  MOSUNNY   76  68  76 S14       29.88F
LEES SUMMIT    MOSUNNY   75  67  76 S12G26    29.91F
OLATHE - IXD   PTSUNNY   76  70  82 S15G21    29.91F
OLATHE - OJC   MOSUNNY   76  70  82 S14       29.90F
LAWRENCE       PTSUNNY   78  71  79 SE9       29.88F

$$

MOZ001>008-011>017-020>025-030>033-038>040-044>046-053-054-251500-
...NORTHERN AND CENTRAL MISSOURI...

CITY           SKY/WX    TMP DP  RH WIND       PRES   REMARKS
ST. JOSEPH     CLOUDY    76  70  82 S17       29.83F
MOSBY          PTSUNNY   75  68  78 S10G20    29.88F
WHITEMAN AFB   MOSUNNY   74  56  54 S16       29.93F
CLINTON        MOSUNNY   75  70  83 S12G17    29.97F
SEDALIA        PTSUNNY   75  63  66 S14       29.97F
WARSAW         NOT AVBL
MARSHALL       MOSUNNY   75  66  73 S13       29.94F
CHILLICOTHE      N/A     72  62  71 SE5       29.93R
MOBERLY        PTSUNNY   68  55  64 E6        30.01R
KIRKSVILLE     CLOUDY    63  59  87 SE14      29.97F

$$

MOZ041-047>049-056>058-063>065-088>090-097-251500-
...EASTERN AND SOUTHERN MISSOURI...

CITY           SKY/WX    TMP DP  RH WIND       PRES   REMARKS
ST. LOUIS INTL PTSUNNY   72  59  63 S5        30.07F
SPIRIT OF STL  PTSUNNY   70  59  68 S3        30.06F
COLUMBIA       PTSUNNY   69  58  67 S15       30.00F
JEFFERSON CITY CLOUDY    71  58  63 SE7       30.00F
MEXICO         PTSUNNY   70  63  78 SE6       30.03
HANNIBAL       CLOUDY    66  57  72 N6        30.10R
ROLLA          PTSUNNY   71  58  63 S12       30.04S
LEBANON        PTSUNNY   72  63  73 S8        30.05S
OSAGE BEACH    PTSUNNY   70  57  64 S9        30.02S
SPRINGFIELD    CLOUDY    72  66  81 S15       30.02F
BRANSON        MOSUNNY   75  64  69 S6        30.08R
NEVADA         MOSUNNY   77  70  78 S13G18    29.98S
JOPLIN         SUNNY     78  70  76 S17G26    30.00R
WEST PLAINS    MOSUNNY   69  59  70 S7        30.10S

$$

IAZ060-094-KSZ022-034>040-054-083-096-NEZ052-066-093-251500-
...KANSAS...SOUTHEAST NEBRASKA AND IOWA...

CITY           SKY/WX    TMP DP  RH WIND       PRES   REMARKS
TOPEKA         PTSUNNY   82  71  69 S13G22    29.86F
MANHATTAN      SUNNY     85  70  60 SW17G26   29.82F
EMPORIA        PTSUNNY   78  69  73 S15       29.90F
CHANUTE        MOSUNNY   79  70  74 SW20G25   29.95R
WICHITA        MOSUNNY   80  67  64 S18G26    29.91F
OMAHA          MOSUNNY   75  63  66 SE14      29.82R
LINCOLN        MOSUNNY   85  70  60 SW17      29.76R
FALLS CITY     PTSUNNY   80  71  74 S13       29.79F
LAMONI         PTSUNNY   66  58  75 E8        29.91S
DES MOINES     CLOUDY    67  58  72 SE12      29.94R

$$



USA.gov is the U.S. government's official web portal to all federal, state and local government web resources and services.